Location: Heafer
(35.3665°N, 90.3398°W)
Time: 16:10:31
(UTC+00:00)

Daily predictions for brighter satellites

Satellite Brightness Start Highest point End
(mag) Time Altitude Azimuth Time Altitude Azimuth Time Altitude Azimuth
Lacrosse 4 Rocket 4.1 12:04:57 10° NNE 12:07:10 14° NE 12:09:24 10° E
Cosmos 1315 Rocket 3.0 12:05:31 10° S 12:09:11 71° E 12:12:54 10° NNE
Hubble Space Telescope 2.5 12:10:47 10° SW 12:13:50 23° S 12:16:54 10° ESE
Cosmos 2360 Rocket 2.3 12:08:50 10° SW 12:14:20 57° WNW 12:19:52 10° NNE
Cosmos 2278 4.4 12:10:01 10° SW 12:15:03 33° WNW 12:20:07 10° N
USA 229 DEB 3.7 12:10:00 10° SSW 12:15:42 74° ESE 12:22:02 10° NE
USA 229 3.7 12:10:05 10° SSW 12:15:47 73° ESE 12:22:06 10° NE
DELTA 2 R/B (1) 3.7 12:11:32 10° W 12:17:03 65° NNW 12:22:35 10° ENE
ATLAS 3B R/B 3.4 12:10:23 10° SSW 12:17:41 69° ESE 12:25:28 10° NE
Cosmos 1356 Rocket 3.5 12:14:43 10° S 12:18:30 73° E 12:22:21 10° NNE
Cosmos 2333 4.2 12:14:52 10° SSW 12:20:31 64° WNW 12:26:09 10° NNE
Cosmos 1802 Rocket 4.1 12:16:56 10° SSW 12:23:01 60° W 12:29:15 10° N
